When you browse on this site, cookies collect data to enhance your experience and personalize the content and advertising you see.
Visit our Privacy Policy to learn more. By continuing to use the site, you agree to this use of cookies and data.
  • In Hungary
  • List of Countries
  • For 7 days
  • Water Temperature
  • Weather Map
  • News
  • Weather Widgets
  • user-avatar
    Login

    Hourly Weather Niva 1

    Today, 22 January, Wednesday

    Time Temperature Precipitation Wind Pressure Humidity
    00:00 -2°C° 0 mm 6 mps 735 mmHg 74%
    01:00 -3°C° 0 mm 6 mps 735 mmHg 76%
    02:00 -2°C° 0 mm 5 mps 735 mmHg 78%
    03:00 -2°C° 0 mm 5 mps 734 mmHg 80%
    04:00 -2°C° 0 mm 5 mps 733 mmHg 82%
    05:00 -3°C° 0 mm 4 mps 732 mmHg 84%
    06:00 -3°C° 0 mm 4 mps 732 mmHg 85%
    07:00 -3°C° 0 mm 4 mps 732 mmHg 86%
    08:00 -3°C° 0 mm 4 mps 731 mmHg 88%
    09:00 -2°C° 0.3 mm 4 mps 731 mmHg 86%
    10:00 -2°C° 0.3 mm 4 mps 730 mmHg 85%
    11:00 -1°C° 0.3 mm 5 mps 730 mmHg 83%
    12:00 -2°C° 0.5 mm 5 mps 730 mmHg 80%
    13:00 -2°C° 0.5 mm 5 mps 730 mmHg 77%
    14:00 -2°C° 0.5 mm 5 mps 731 mmHg 73%
    15:00 -4°C° 0 mm 5 mps 731 mmHg 75%
    16:00 -5°C° 0 mm 5 mps 732 mmHg 77%
    17:00 -5°C° 0 mm 5 mps 732 mmHg 79%
    18:00 -5°C° 0 mm 5 mps 733 mmHg 79%
    19:00 -5°C° 0 mm 5 mps 733 mmHg 79%
    20:00 -5°C° 0 mm 5 mps 734 mmHg 79%
    21:00 -6°C° 0.1 mm 5 mps 734 mmHg 80%
    22:00 -6°C° 0.1 mm 6 mps 735 mmHg 82%
    23:00 -6°C° 0.1 mm 6 mps 735 mmHg 84%

    Tomorrow, 23 January, Thursday

    Time Temperature Precipitation Wind Pressure Humidity
    00:00 -8°C° 0 mm 6 mps 736 mmHg 79%
    01:00 -8°C° 0 mm 6 mps 737 mmHg 74%
    02:00 -8°C° 0 mm 6 mps 738 mmHg 70%
    03:00 -9°C° 0 mm 6 mps 738 mmHg 70%
    04:00 -9°C° 0 mm 6 mps 738 mmHg 71%
    05:00 -9°C° 0 mm 6 mps 739 mmHg 72%
    06:00 -9°C° 0 mm 6 mps 739 mmHg 69%
    07:00 -8°C° 0 mm 5 mps 740 mmHg 65%
    08:00 -8°C° 0 mm 5 mps 741 mmHg 61%
    09:00 -8°C° 0 mm 5 mps 741 mmHg 61%
    10:00 -7°C° 0 mm 5 mps 741 mmHg 60%
    11:00 -6°C° 0 mm 6 mps 741 mmHg 60%
    12:00 -6°C° 0 mm 6 mps 741 mmHg 62%
    13:00 -6°C° 0 mm 6 mps 741 mmHg 65%
    14:00 -6°C° 0 mm 6 mps 741 mmHg 68%
    15:00 -6°C° 0 mm 6 mps 741 mmHg 67%
    16:00 -7°C° 0 mm 5 mps 742 mmHg 66%
    17:00 -7°C° 0 mm 5 mps 742 mmHg 65%
    18:00 -7°C° 0 mm 4 mps 742 mmHg 66%
    19:00 -7°C° 0 mm 3 mps 743 mmHg 68%
    20:00 -6°C° 0 mm 2 mps 743 mmHg 69%
    21:00 -6°C° 0 mm 2 mps 743 mmHg 70%
    22:00 -6°C° 0 mm 2 mps 743 mmHg 70%
    23:00 -6°C° 0 mm 2 mps 743 mmHg 71%

    Day after tomorrow, 24 January, Friday

    Time Temperature Precipitation Wind Pressure Humidity
    00:00 -6°C° 0 mm 2 mps 742 mmHg 74%
    01:00 -5°C° 0 mm 2 mps 742 mmHg 78%
    02:00 -6°C° 0 mm 3 mps 742 mmHg 82%
    03:00 -5°C° 0 mm 3 mps 741 mmHg 84%
    04:00 -5°C° 0 mm 3 mps 740 mmHg 85%
    05:00 -4°C° 0 mm 4 mps 739 mmHg 86%
    06:00 -4°C° 0.2 mm 4 mps 738 mmHg 89%
    07:00 -4°C° 0.2 mm 4 mps 737 mmHg 92%
    08:00 -3°C° 0.2 mm 4 mps 737 mmHg 95%
    09:00 -3°C° 0.5 mm 4 mps 736 mmHg 96%
    10:00 -2°C° 0.5 mm 4 mps 735 mmHg 96%
    11:00 -1°C° 0.5 mm 4 mps 735 mmHg 96%
    12:00 -1°C° 0.1 mm 4 mps 734 mmHg 96%
    13:00 0°C° 0.1 mm 4 mps 734 mmHg 96%
    14:00 +1°C° 0.1 mm 5 mps 734 mmHg 96%
    15:00 0°C° 0 mm 5 mps 734 mmHg 93%
    16:00 0°C° 0 mm 4 mps 734 mmHg 89%
    17:00 0°C° 0 mm 4 mps 734 mmHg 86%
    18:00 -1°C° 0 mm 4 mps 734 mmHg 87%
    19:00 -2°C° 0 mm 4 mps 735 mmHg 88%
    20:00 -3°C° 0 mm 4 mps 735 mmHg 89%
    21:00 -3°C° 0 mm 4 mps 735 mmHg 90%
    22:00 -2°C° 0 mm 3 mps 735 mmHg 91%
    23:00 -2°C° 0 mm 3 mps 735 mmHg 91%

    25 January, Saturday

    Time Temperature Precipitation Wind Pressure Humidity
    00:00 -2°C° 0 mm 3 mps 734 mmHg 92%
    01:00 -2°C° 0 mm 3 mps 734 mmHg 93%
    02:00 -2°C° 0 mm 3 mps 734 mmHg 94%
    03:00 -2°C° 0 mm 3 mps 734 mmHg 91%
    04:00 -2°C° 0 mm 4 mps 733 mmHg 89%
    05:00 -1°C° 0 mm 4 mps 733 mmHg 87%
    06:00 -2°C° 0 mm 4 mps 733 mmHg 88%
    07:00 -1°C° 0 mm 3 mps 733 mmHg 88%
    08:00 -1°C° 0 mm 3 mps 733 mmHg 89%
    09:00 -2°C° 0 mm 4 mps 732 mmHg 85%
    10:00 -1°C° 0 mm 4 mps 732 mmHg 81%
    11:00 -1°C° 0 mm 5 mps 732 mmHg 78%
    12:00 -1°C° 0 mm 5 mps 731 mmHg 76%
    13:00 -2°C° 0 mm 6 mps 731 mmHg 73%
    14:00 -2°C° 0 mm 6 mps 730 mmHg 71%
    15:00 -2°C° 0.2 mm 6 mps 731 mmHg 70%
    16:00 -3°C° 0.2 mm 7 mps 731 mmHg 70%
    17:00 -3°C° 0.2 mm 7 mps 731 mmHg 69%
    18:00 -4°C° 0 mm 7 mps 732 mmHg 71%
    19:00 -4°C° 0 mm 7 mps 733 mmHg 74%
    20:00 -5°C° 0 mm 6 mps 733 mmHg 76%
    21:00 -5°C° 0 mm 6 mps 734 mmHg 74%
    22:00 -5°C° 0 mm 6 mps 735 mmHg 72%
    23:00 -5°C° 0 mm 6 mps 735 mmHg 69%

    26 January, Sunday

    Time Temperature Precipitation Wind Pressure Humidity
    00:00 -5°C° 0 mm 6 mps 736 mmHg 71%
    01:00 -5°C° 0 mm 5 mps 736 mmHg 72%
    02:00 -6°C° 0 mm 5 mps 737 mmHg 74%
    03:00 -6°C° 0 mm 5 mps 737 mmHg 75%
    04:00 -6°C° 0 mm 5 mps 738 mmHg 76%
    05:00 -6°C° 0 mm 5 mps 739 mmHg 77%
    06:00 -5°C° 0 mm 4 mps 739 mmHg 79%
    07:00 -5°C° 0 mm 4 mps 740 mmHg 80%
    08:00 -7°C° 0 mm 4 mps 741 mmHg 81%
    09:00 -5°C° 0 mm 4 mps 741 mmHg 79%
    10:00 -5°C° 0 mm 3 mps 742 mmHg 77%
    11:00 -4°C° 0 mm 3 mps 743 mmHg 75%
    12:00 -4°C° 0 mm 3 mps 743 mmHg 75%
    13:00 -4°C° 0 mm 3 mps 744 mmHg 75%
    14:00 -3°C° 0 mm 2 mps 744 mmHg 75%
    15:00 -4°C° 0 mm 2 mps 745 mmHg 79%
    16:00 -2°C° 0 mm 1 mps 745 mmHg 84%
    17:00 -4°C° 0 mm 0 mps 745 mmHg 88%
    18:00 -4°C° 0 mm 0 mps 746 mmHg 89%
    19:00 -4°C° 0 mm 0 mps 746 mmHg 90%
    20:00 -5°C° 0 mm 0 mps 746 mmHg 91%
    21:00 -4°C° 0 mm 1 mps 747 mmHg 91%
    22:00 -4°C° 0 mm 1 mps 747 mmHg 92%
    23:00 -6°C° 0 mm 2 mps 747 mmHg 92%

    27 January, Monday

    Time Temperature Precipitation Wind Pressure Humidity
    00:00 -5°C° 0 mm 2 mps 747 mmHg 91%
    01:00 -6°C° 0 mm 3 mps 747 mmHg 91%
    02:00 -5°C° 0 mm 3 mps 747 mmHg 90%
    03:00 -5°C° 0.1 mm 3 mps 746 mmHg 92%
    04:00 -5°C° 0.1 mm 3 mps 746 mmHg 93%
    05:00 -4°C° 0.1 mm 4 mps 745 mmHg 95%
    06:00 -4°C° 0.3 mm 4 mps 745 mmHg 95%
    07:00 -4°C° 0.3 mm 4 mps 745 mmHg 95%
    08:00 -3°C° 0.3 mm 4 mps 744 mmHg 95%
    09:00 -3°C° 0.4 mm 4 mps 744 mmHg 95%
    10:00 -2°C° 0.4 mm 4 mps 744 mmHg 95%
    11:00 -2°C° 0.4 mm 4 mps 744 mmHg 95%
    12:00 -2°C° 0.2 mm 4 mps 743 mmHg 95%
    13:00 -1°C° 0.2 mm 4 mps 742 mmHg 95%
    14:00 -1°C° 0.2 mm 4 mps 742 mmHg 94%
    15:00 -1°C° 0 mm 4 mps 742 mmHg 93%
    16:00 -1°C° 0 mm 4 mps 741 mmHg 91%
    17:00 -1°C° 0 mm 4 mps 741 mmHg 90%
    18:00 -1°C° 0.1 mm 4 mps 740 mmHg 92%
    19:00 -1°C° 0.1 mm 4 mps 740 mmHg 94%
    20:00 -2°C° 0.1 mm 4 mps 740 mmHg 96%
    21:00 -2°C° 0.2 mm 4 mps 739 mmHg 96%
    22:00 -1°C° 0.2 mm 3 mps 739 mmHg 96%
    23:00 -1°C° 0.2 mm 3 mps 739 mmHg 96%
    Show more